This is the latest recevied weather packets stored in our database for station/object W8RSN-13. If no packets are shown the sender has not sent any weather packets the latest 10 day(s).
| Time | Temp. | Humidity | Pressure | Rain* | Wind** | Luminosity | Snow |
|---|---|---|---|---|---|---|---|
| 1787784257 | 39.44° C | 26% | 1012 hPa | - | - | - | - |
| 1787783957 | 39.44° C | 26% | 1012 hPa | - | - | - | - |
| 1787783656 | 39.44° C | 26% | 1012.3 hPa | - | - | - | - |
| 1787783375 | 39.44° C | 27% | 1012.2 hPa | - | - | - | - |
| 1787783074 | 40° C | 26% | 1012.2 hPa | - | - | - | - |
| 1787782773 | 39.44° C | 27% | 1012.2 hPa | - | - | - | - |
| 1787782472 | 40° C | 26% | 1012.5 hPa | - | - | - | - |
| 1787782171 | 40° C | 24% | 1012.5 hPa | - | - | - | - |
| 1787781870 | 39.44° C | 22% | 1012.7 hPa | - | - | - | - |
| 1787781569 | 39.44° C | 22% | 1012.6 hPa | - | - | - | - |
| 1787781268 | 39.44° C | 26% | 1012.7 hPa | - | - | - | - |
| 1787780968 | 39.44° C | 26% | 1013.1 hPa | - | - | - | - |
| 1787780667 | 39.44° C | 23% | 1013 hPa | - | - | - | - |
| 1787780366 | 38.89° C | 25% | 1013.1 hPa | - | - | - | - |
| 1787780065 | 39.44° C | 24% | 1013.3 hPa | - | - | - | - |
| 1787779764 | 39.44° C | 24% | 1013.3 hPa | - | - | - | - |
| 1787779463 | 38.89° C | 25% | 1013.2 hPa | - | - | - | - |
| 1787779162 | 38.89° C | 25% | 1013.3 hPa | - | - | - | - |
| 1787778861 | 39.44° C | 25% | 1013.6 hPa | - | - | - | - |
| 1787778560 | 38.89° C | 26% | 1013.5 hPa | - | - | - | - |
| 1787778259 | 38.89° C | 26% | 1013.5 hPa | - | - | - | - |
| 1787777958 | 38.33° C | 28% | 1013.4 hPa | - | - | - | - |
| 1787777679 | 37.78° C | 29% | 1013.6 hPa | - | - | - | - |
| 1787777357 | 37.78° C | 30% | 1013.8 hPa | - | - | - | - |
| 1787777056 | 37.78° C | 30% | 1013.9 hPa | - | - | - | - |
* Rain since midnight (hover to see other rain measurements)
** Current wind speed in m/s (hover to see current wind gust speed)